IST,Max TemperatureF,Mean TemperatureF,Min TemperatureF,Max Dew PointF,MeanDew PointF,Min DewpointF,Max Humidity, Mean Humidity, Min Humidity, Max Sea Level PressureIn, Mean Sea Level PressureIn, Min Sea Level PressureIn, Max VisibilityMiles, Mean VisibilityMiles, Min VisibilityMiles, Max Wind SpeedMPH, Mean Wind SpeedMPH, Max Gust SpeedMPH,PrecipitationIn, CloudCover, Events, WindDirDegrees
2013-4-1,41,39,37,34,29,27,81,64,48,29.83,29.74,29.68,12,6,5,28,19,,0.00,6,,108
2013-4-2,48,42,35,28,26,24,70,55,29,30.09,29.96,29.86,19,7,6,20,15,,0.00,4,,98
2013-4-3,50,40,29,28,24,13,86,57,13,30.18,30.14,30.09,16,7,6,17,10,,0.00,1,,66
2013-4-4,49,38,26,30,24,21,86,55,24,30.22,30.19,30.15,16,7,6,18,11,,0.00,1,,39
2013-4-5,50,39,28,32,27,23,86,63,30,30.27,30.23,30.21,19,7,6,14,7,,0.00,3,,21
2013-4-6,52,40,29,32,29,25,87,63,31,30.31,30.25,30.18,19,8,6,16,8,,0.00,1,,134
2013-4-7,46,42,37,37,33,30,81,69,52,30.16,29.91,29.68,16,7,6,25,13,38,0.00,6,Rain,105
2013-4-8,50,46,41,37,34,30,81,65,38,29.69,29.50,29.36,9,6,5,30,20,43,0.01,6,Rain,96
2013-4-9,49,45,41,39,34,32,87,65,47,29.59,29.46,29.36,11,6,4,21,15,33,0.00,6,Rain,83
2013-4-10,54,48,41,46,42,39,93,83,56,29.60,29.50,29.39,16,5,2,15,9,,0.01,6,Rain,111
2013-4-11,54,49,44,48,44,43,100,89,66,29.39,29.28,29.21,16,6,3,14,10,,0.08,6,Rain,117
2013-4-12,53,47,39,45,41,37,100,80,50,29.68,29.50,29.30,12,6,5,20,9,,0.00,4,Rain,281
2013-4-13,56,46,36,54,44,34,100,91,81,29.68,29.45,29.27,16,6,2,23,10,,0.08,6,Rain,121
2013-4-14,58,54,49,50,46,45,94,77,62,29.53,29.36,29.30,19,7,6,31,20,46,0.00,6,Rain,176
2013-4-15,59,54,48,48,45,41,100,78,50,29.77,29.61,29.39,16,7,5,33,18,50,0.02,6,Rain,183
2013-4-16,56,52,48,43,39,32,82,64,32,29.89,29.72,29.42,16,7,6,33,24,52,0.00,3,Rain,225
2013-4-17,59,54,48,54,48,43,100,85,63,29.83,29.40,29.12,16,6,2,40,20,56,0.08,6,Rain,166
2013-4-18,51,48,44,46,42,37,93,81,62,30.18,29.83,29.39,10,6,2,40,24,53,0.08,5,Rain,256
2013-4-19,55,48,42,43,40,36,93,74,44,30.48,30.37,30.21,12,6,6,14,10,,0.00,3,,252
2013-4-20,56,48,39,45,41,37,93,76,54,30.48,30.36,30.18,19,7,6,20,10,,0.00,5,Rain,165
2013-4-21,53,48,44,46,43,37,100,80,58,30.18,30.06,30.01,16,7,4,21,13,26,0.02,5,Rain,228
2013-4-22,56,51,46,52,48,43,100,88,67,30.04,29.95,29.89,16,5,1,25,15,,0.04,6,Rain,238
2013-4-23,60,54,49,52,50,48,100,86,62,30.16,30.10,30.04,16,6,2,16,11,,0.00,6,Rain,240
2013-4-24,55,52,48,52,50,48,100,90,77,30.24,30.16,30.06,19,6,2,22,11,,0.08,6,Rain,286
2013-4-25,53,48,42,46,41,36,100,79,50,30.24,30.20,30.15,19,6,2,18,10,29,0.00,4,Rain,302
2013-4-26,51,44,38,39,36,34,93,75,46,30.26,30.21,30.15,19,7,6,24,11,31,0.04,2,Rain,300
2013-4-27,54,46,37,39,35,28,93,69,35,30.24,30.21,30.18,16,6,6,16,9,,0.00,3,,308
2013-4-28,54,49,44,48,41,37,100,77,58,30.18,30.02,29.98,16,6,2,26,15,38,0.03,6,Rain,263
2013-4-29,54,48,42,41,39,37,87,71,50,30.30,30.14,30.01,19,7,6,25,16,38,0.00,2,Rain,280
2013-4-30,54,44,35,41,38,34,100,75,49,30.39,30.34,30.30,16,7,6,14,6,,0.00,4,Rain,274